Time,TemperatureF,DewpointF,PressureIn,WindDirection,WindDirectionDegrees,WindSpeedMPH,WindSpeedGustMPH,Humidity,HourlyPrecipIn,Conditions,Clouds,dailyrainin,SoftwareType,DateUTC
2013-03-08 00:00:00,27.4,24.3,30.35,SW,215,0.0,0.0,88,0.00,,---,0.01,VWS V14.01,2013-03-08 05:00:00,
2013-03-08 00:01:00,27.4,24.3,30.35,SW,215,0.0,0.0,88,0.00,,---,0.00,VWS V14.01,2013-03-08 05:01:00,
2013-03-08 00:06:00,27.4,24.6,30.35,SW,215,0.0,0.0,89,0.00,,---,0.00,VWS V14.01,2013-03-08 05:06:00,
2013-03-08 00:11:00,27.2,24.4,30.35,SW,215,0.0,0.0,89,0.00,,---,0.00,VWS V14.01,2013-03-08 05:11:00,
2013-03-08 00:16:00,27.1,24.0,30.34,SW,215,0.0,0.0,88,0.00,,---,0.00,VWS V14.01,2013-03-08 05:16:00,
2013-03-08 00:21:00,26.9,24.1,30.34,SW,215,0.0,0.0,89,0.00,,---,0.00,VWS V14.01,2013-03-08 05:21:00,
2013-03-08 00:26:00,26.9,24.4,30.33,SW,215,0.0,0.0,90,0.00,,---,0.00,VWS V14.01,2013-03-08 05:26:00,
2013-03-08 00:31:00,26.6,23.8,30.33,SW,215,0.0,0.0,89,0.00,,---,0.00,VWS V14.01,2013-03-08 05:31:00,
2013-03-08 00:36:00,26.4,23.6,30.33,SW,215,0.0,0.0,89,0.00,,---,0.00,VWS V14.01,2013-03-08 05:36:00,
2013-03-08 00:41:00,26.3,23.8,30.33,SW,215,0.0,0.0,90,0.00,,---,0.00,VWS V14.01,2013-03-08 05:41:00,
2013-03-08 00:46:00,26.1,23.8,30.33,SW,215,0.0,0.0,91,0.00,,---,0.00,VWS V14.01,2013-03-08 05:46:00,
2013-03-08 00:51:00,26.1,23.8,30.33,SW,215,0.0,0.0,91,0.00,,---,0.00,VWS V14.01,2013-03-08 05:51:00,
2013-03-08 00:56:00,25.9,23.6,30.33,SW,215,0.0,0.0,91,0.00,,---,0.00,VWS V14.01,2013-03-08 05:56:00,
2013-03-08 01:01:00,25.9,23.6,30.33,SW,215,0.0,0.0,91,0.00,,---,0.00,VWS V14.01,2013-03-08 06:01:00,
2013-03-08 01:06:00,25.8,23.8,30.32,SW,215,0.0,0.0,92,0.00,,---,0.00,VWS V14.01,2013-03-08 06:06:00,
2013-03-08 01:11:00,25.7,23.4,30.33,SW,215,0.0,0.0,91,0.00,,---,0.00,VWS V14.01,2013-03-08 06:11:00,
2013-03-08 01:16:00,25.6,23.3,30.33,SW,215,0.0,0.0,91,0.00,,---,0.00,VWS V14.01,2013-03-08 06:16:00,
2013-03-08 01:21:00,25.5,23.2,30.33,SW,215,0.0,0.0,91,0.00,,---,0.00,VWS V14.01,2013-03-08 06:21:00,
2013-03-08 01:26:00,25.4,23.1,30.33,SW,215,0.0,0.0,91,0.00,,---,0.00,VWS V14.01,2013-03-08 06:26:00,
2013-03-08 01:31:00,25.3,23.0,30.33,SW,215,0.0,0.0,91,0.00,,---,0.00,VWS V14.01,2013-03-08 06:31:00,
2013-03-08 01:36:00,25.3,23.0,30.33,SW,215,0.0,0.0,91,0.00,,---,0.00,VWS V14.01,2013-03-08 06:36:00,
2013-03-08 01:41:00,25.3,23.3,30.34,SW,215,0.0,0.0,92,0.00,,---,0.00,VWS V14.01,2013-03-08 06:41:00,
2013-03-08 01:46:00,25.3,23.3,30.33,SW,216,0.0,1.0,92,0.00,,---,0.00,VWS V14.01,2013-03-08 06:46:00,
2013-03-08 01:51:00,25.3,23.3,30.34,SW,215,0.0,0.0,92,0.00,,---,0.00,VWS V14.01,2013-03-08 06:51:00,
2013-03-08 01:56:00,25.3,23.3,30.34,SW,215,0.0,0.0,92,0.00,,---,0.00,VWS V14.01,2013-03-08 06:56:00,
2013-03-08 02:01:00,25.2,23.2,30.33,SW,215,0.0,0.0,92,0.00,,---,0.00,VWS V14.01,2013-03-08 07:01:00,
2013-03-08 02:06:00,25.2,23.2,30.33,SW,215,0.0,0.0,92,0.00,,---,0.00,VWS V14.01,2013-03-08 07:06:00,
2013-03-08 02:11:00,25.1,23.1,30.33,SW,215,0.0,0.0,92,0.00,,---,0.00,VWS V14.01,2013-03-08 07:11:00,
2013-03-08 02:16:00,25.0,23.0,30.33,SW,215,0.0,0.0,92,0.00,,---,0.00,VWS V14.01,2013-03-08 07:16:00,
2013-03-08 02:21:00,25.0,23.0,30.33,SW,215,0.0,0.0,92,0.00,,---,0.00,VWS V14.01,2013-03-08 07:21:00,
2013-03-08 02:26:00,24.9,22.9,30.33,SW,215,0.0,0.0,92,0.00,,---,0.00,VWS V14.01,2013-03-08 07:26:00,
2013-03-08 02:31:00,24.8,22.8,30.33,SW,215,0.0,0.0,92,0.00,,---,0.00,VWS V14.01,2013-03-08 07:31:00,
2013-03-08 02:36:00,24.8,23.1,30.33,SW,215,0.0,1.0,93,0.00,,---,0.00,VWS V14.01,2013-03-08 07:36:00,
2013-03-08 02:41:00,24.9,23.2,30.33,SW,215,0.0,0.0,93,0.00,,---,0.00,VWS V14.01,2013-03-08 07:41:00,
2013-03-08 02:46:00,24.9,22.9,30.32,SW,215,0.0,1.0,92,0.00,,---,0.00,VWS V14.01,2013-03-08 07:46:00,
2013-03-08 02:51:00,24.8,22.8,30.32,SW,215,0.0,0.0,92,0.00,,---,0.00,VWS V14.01,2013-03-08 07:51:00,
2013-03-08 02:56:00,24.7,23.0,30.32,SW,215,0.0,0.0,93,0.00,,---,0.00,VWS V14.01,2013-03-08 07:56:00,
2013-03-08 03:01:00,24.7,22.7,30.32,SW,215,0.0,0.0,92,0.00,,---,0.00,VWS V14.01,2013-03-08 08:01:00,
2013-03-08 03:06:00,24.7,22.7,30.32,SW,215,0.0,0.0,92,0.00,,---,0.00,VWS V14.01,2013-03-08 08:06:00,
2013-03-08 03:11:00,24.7,22.7,30.31,SW,215,0.0,0.0,92,0.00,,---,0.00,VWS V14.01,2013-03-08 08:11:00,
2013-03-08 03:17:00,24.7,22.7,30.32,SW,215,0.0,0.0,92,0.00,,---,0.00,VWS V14.01,2013-03-08 08:17:00,
2013-03-08 03:22:00,24.6,22.6,30.32,SW,215,0.0,0.0,92,0.00,,---,0.00,VWS V14.01,2013-03-08 08:22:00,
2013-03-08 03:27:00,24.7,23.0,30.32,SW,215,0.0,0.0,93,0.00,,---,0.00,VWS V14.01,2013-03-08 08:27:00,
2013-03-08 03:32:00,24.6,22.6,30.31,SW,215,0.0,1.0,92,0.00,,---,0.00,VWS V14.01,2013-03-08 08:32:00,
2013-03-08 03:37:00,24.3,22.3,30.32,SW,215,0.0,0.0,92,0.00,,---,0.00,VWS V14.01,2013-03-08 08:37:00,
2013-03-08 03:42:00,24.0,22.3,30.32,SW,215,0.0,0.0,93,0.00,,---,0.00,VWS V14.01,2013-03-08 08:42:00,
2013-03-08 03:47:00,24.0,22.3,30.31,SW,215,0.0,1.0,93,0.00,,---,0.00,VWS V14.01,2013-03-08 08:47:00,
2013-03-08 03:52:00,24.0,22.3,30.31,SW,215,0.0,0.0,93,0.00,,---,0.00,VWS V14.01,2013-03-08 08:52:00,
2013-03-08 03:57:00,23.9,22.2,30.32,SW,215,0.0,0.0,93,0.00,,---,0.00,VWS V14.01,2013-03-08 08:57:00,
2013-03-08 04:02:00,23.9,22.2,30.32,SW,215,0.0,0.0,93,0.00,,---,0.00,VWS V14.01,2013-03-08 09:02:00,
2013-03-08 04:07:00,23.8,22.1,30.33,SW,215,0.0,0.0,93,0.00,,---,0.00,VWS V14.01,2013-03-08 09:07:00,
2013-03-08 04:12:00,23.8,22.1,30.33,SW,215,0.0,0.0,93,0.00,,---,0.00,VWS V14.01,2013-03-08 09:12:00,
2013-03-08 04:17:00,23.7,22.0,30.33,SW,215,0.0,0.0,93,0.00,,---,0.00,VWS V14.01,2013-03-08 09:17:00,
2013-03-08 04:22:00,23.9,22.4,30.33,SW,215,0.0,0.0,94,0.00,,---,0.00,VWS V14.01,2013-03-08 09:22:00,
2013-03-08 04:27:00,23.9,22.2,30.33,SW,215,0.0,0.0,93,0.00,,---,0.00,VWS V14.01,2013-03-08 09:27:00,
2013-03-08 04:32:00,23.7,22.0,30.33,SW,215,0.0,0.0,93,0.00,,---,0.00,VWS V14.01,2013-03-08 09:32:00,
2013-03-08 04:37:00,23.6,21.9,30.34,SW,215,0.0,0.0,93,0.00,,---,0.00,VWS V14.01,2013-03-08 09:37:00,
2013-03-08 04:42:00,23.5,21.8,30.34,SW,215,0.0,0.0,93,0.00,,---,0.00,VWS V14.01,2013-03-08 09:42:00,
2013-03-08 04:47:00,23.5,22.0,30.33,SW,215,0.0,0.0,94,0.00,,---,0.00,VWS V14.01,2013-03-08 09:47:00,
2013-03-08 04:52:00,23.4,21.7,30.33,SW,215,0.0,0.0,93,0.00,,---,0.00,VWS V14.01,2013-03-08 09:52:00,
2013-03-08 04:57:00,23.3,21.6,30.33,SW,215,0.0,0.0,93,0.00,,---,0.00,VWS V14.01,2013-03-08 09:57:00,
2013-03-08 05:02:00,23.4,21.9,30.34,SW,215,0.0,0.0,94,0.00,,---,0.00,VWS V14.01,2013-03-08 10:02:00,
2013-03-08 05:07:00,23.4,21.9,30.33,SW,215,0.0,0.0,94,0.00,,---,0.00,VWS V14.01,2013-03-08 10:07:00,
2013-03-08 05:12:00,23.5,22.0,30.34,SW,215,0.0,0.0,94,0.00,,---,0.00,VWS V14.01,2013-03-08 10:12:00,
2013-03-08 05:17:00,23.4,21.7,30.34,SW,215,0.0,0.0,93,0.00,,---,0.00,VWS V14.01,2013-03-08 10:17:00,
2013-03-08 05:22:00,23.3,21.6,30.34,SW,215,0.0,0.0,93,0.00,,---,0.00,VWS V14.01,2013-03-08 10:22:00,
2013-03-08 05:27:00,23.3,21.8,30.34,SW,215,0.0,0.0,94,0.00,,---,0.00,VWS V14.01,2013-03-08 10:27:00,
2013-03-08 05:32:00,23.3,21.8,30.34,SW,215,0.0,0.0,94,0.00,,---,0.00,VWS V14.01,2013-03-08 10:32:00,
2013-03-08 05:37:00,23.4,21.9,30.34,SW,215,0.0,0.0,94,0.00,,---,0.00,VWS V14.01,2013-03-08 10:37:00,
2013-03-08 05:42:00,23.4,21.7,30.34,SW,215,0.0,0.0,93,0.00,,---,0.00,VWS V14.01,2013-03-08 10:42:00,
2013-03-08 05:47:00,23.2,21.5,30.34,SW,215,0.0,0.0,93,0.00,,---,0.00,VWS V14.01,2013-03-08 10:47:00,
2013-03-08 05:52:00,23.2,21.5,30.34,SW,215,0.0,0.0,93,0.00,,---,0.00,VWS V14.01,2013-03-08 10:52:00,
2013-03-08 05:57:00,23.0,21.3,30.34,SW,215,0.0,0.0,93,0.00,,---,0.00,VWS V14.01,2013-03-08 10:57:00,
2013-03-08 06:02:00,22.9,21.2,30.34,SW,215,0.0,0.0,93,0.00,,---,0.00,VWS V14.01,2013-03-08 11:02:00,
2013-03-08 06:07:00,22.9,21.4,30.34,SW,215,0.0,0.0,94,0.00,,---,0.00,VWS V14.01,2013-03-08 11:07:00,
2013-03-08 06:12:00,23.0,21.5,30.34,SW,215,0.0,0.0,94,0.00,,---,0.00,VWS V14.01,2013-03-08 11:12:00,
2013-03-08 06:17:00,22.9,21.4,30.34,SW,215,0.0,0.0,94,0.00,,---,0.00,VWS V14.01,2013-03-08 11:17:00,
2013-03-08 06:22:00,22.8,21.3,30.34,SW,215,0.0,0.0,94,0.00,,---,0.00,VWS V14.01,2013-03-08 11:22:00,
2013-03-08 06:27:00,22.8,21.3,30.35,SW,215,0.0,0.0,94,0.00,,---,0.00,VWS V14.01,2013-03-08 11:27:00,
2013-03-08 06:32:00,22.8,21.3,30.35,SW,215,0.0,0.0,94,0.00,,---,0.00,VWS V14.01,2013-03-08 11:32:00,
2013-03-08 06:37:00,22.8,21.1,30.35,SW,215,0.0,0.0,93,0.00,,---,0.00,VWS V14.01,2013-03-08 11:37:00,
2013-03-08 06:42:00,22.9,21.4,30.35,SW,215,0.0,0.0,94,0.00,,---,0.00,VWS V14.01,2013-03-08 11:42:00,
2013-03-08 06:47:00,22.9,21.2,30.36,SW,215,0.0,0.0,93,0.00,,---,0.00,VWS V14.01,2013-03-08 11:47:00,
2013-03-08 06:52:00,22.8,21.1,30.36,SW,215,0.0,0.0,93,0.00,,---,0.00,VWS V14.01,2013-03-08 11:52:00,
2013-03-08 06:57:00,22.8,21.1,30.36,SW,215,0.0,0.0,93,0.00,,---,0.00,VWS V14.01,2013-03-08 11:57:00,
2013-03-08 07:02:00,22.7,21.0,30.36,SW,215,0.0,0.0,93,0.00,,---,0.00,VWS V14.01,2013-03-08 12:02:00,
2013-03-08 07:07:00,22.7,21.0,30.37,SW,215,0.0,0.0,93,0.00,,---,0.00,VWS V14.01,2013-03-08 12:07:00,
2013-03-08 07:12:00,22.6,20.9,30.36,SE,136,0.0,0.0,93,0.00,,---,0.00,VWS V14.01,2013-03-08 12:12:00,
2013-03-08 07:17:00,22.6,21.1,30.37,SE,136,0.0,0.0,94,0.00,,---,0.00,VWS V14.01,2013-03-08 12:17:00,
2013-03-08 07:22:00,22.5,21.0,30.37,SE,136,0.0,0.0,94,0.00,,---,0.00,VWS V14.01,2013-03-08 12:22:00,
2013-03-08 07:27:00,22.4,20.9,30.37,SE,136,0.0,0.0,94,0.00,,---,0.00,VWS V14.01,2013-03-08 12:27:00,
2013-03-08 07:32:00,22.3,20.8,30.37,SE,136,0.0,0.0,94,0.00,,---,0.00,VWS V14.01,2013-03-08 12:32:00,
2013-03-08 07:37:00,22.2,20.7,30.37,SE,136,0.0,0.0,94,0.00,,---,0.00,VWS V14.01,2013-03-08 12:37:00,
2013-03-08 07:42:00,22.3,21.1,30.37,SE,136,0.0,0.0,95,0.00,,---,0.00,VWS V14.01,2013-03-08 12:42:00,
2013-03-08 07:47:00,22.4,20.9,30.37,SE,136,0.0,1.0,94,0.00,,---,0.00,VWS V14.01,2013-03-08 12:47:00,
2013-03-08 07:52:00,22.6,21.4,30.37,NNE,33,0.0,1.0,95,0.00,,---,0.00,VWS V14.01,2013-03-08 12:52:00,
2013-03-08 07:57:00,22.9,21.7,30.37,NNE,33,0.0,0.0,95,0.00,,---,0.00,VWS V14.01,2013-03-08 12:57:00,
2013-03-08 08:02:00,23.2,21.7,30.37,NNE,33,0.0,0.0,94,0.00,,---,0.00,VWS V14.01,2013-03-08 13:02:00,
2013-03-08 08:07:00,23.3,21.8,30.38,NNE,33,0.0,0.0,94,0.00,,---,0.00,VWS V14.01,2013-03-08 13:07:00,
2013-03-08 08:12:00,23.5,21.8,30.38,NNE,33,0.0,1.0,93,0.00,,---,0.00,VWS V14.01,2013-03-08 13:12:00,
2013-03-08 08:17:00,23.7,22.0,30.38,NNE,33,0.0,0.0,93,0.00,,---,0.00,VWS V14.01,2013-03-08 13:17:00,
2013-03-08 08:22:00,23.9,22.2,30.37,NNE,33,0.0,0.0,93,0.00,,---,0.00,VWS V14.01,2013-03-08 13:22:00,
2013-03-08 08:27:00,24.0,22.3,30.38,NNE,33,0.0,0.0,93,0.00,,---,0.00,VWS V14.01,2013-03-08 13:27:00,
2013-03-08 08:32:00,24.1,22.4,30.38,NNE,33,0.0,0.0,93,0.00,,---,0.00,VWS V14.01,2013-03-08 13:32:00,
2013-03-08 08:37:00,24.3,22.3,30.38,NE,34,0.0,0.0,92,0.00,,---,0.00,VWS V14.01,2013-03-08 13:37:00,
2013-03-08 08:42:00,24.5,22.5,30.38,NE,34,0.0,1.0,92,0.00,,---,0.00,VWS V14.01,2013-03-08 13:42:00,
2013-03-08 08:47:00,24.8,22.8,30.38,NNE,33,0.0,0.0,92,0.00,,---,0.00,VWS V14.01,2013-03-08 13:47:00,
2013-03-08 08:52:00,25.1,23.1,30.38,NE,34,0.0,1.0,92,0.00,,---,0.00,VWS V14.01,2013-03-08 13:52:00,
2013-03-08 08:57:00,25.4,23.4,30.38,ESE,123,2.0,2.0,92,0.00,,---,0.00,VWS V14.01,2013-03-08 13:57:00,
2013-03-08 09:02:00,26.1,23.6,30.39,ESE,115,1.0,1.0,90,0.00,,---,0.00,VWS V14.01,2013-03-08 14:02:00,
2013-03-08 09:07:00,26.6,23.0,30.39,WNW,284,0.0,4.0,86,0.00,,---,0.00,VWS V14.01,2013-03-08 14:07:00,
2013-03-08 09:12:00,27.8,22.7,30.39,NW,311,0.0,1.0,81,0.00,,---,0.00,VWS V14.01,2013-03-08 14:12:00,
2013-03-08 09:17:00,28.4,22.4,30.39,ENE,70,0.0,1.0,78,0.00,,---,0.00,VWS V14.01,2013-03-08 14:17:00,
2013-03-08 09:22:00,28.7,22.1,30.39,WNW,293,0.0,3.0,76,0.00,,---,0.00,VWS V14.01,2013-03-08 14:22:00,
2013-03-08 09:27:00,29.2,22.6,30.40,WSW,246,2.0,2.0,76,0.00,,---,0.00,VWS V14.01,2013-03-08 14:27:00,
2013-03-08 09:32:00,29.7,22.4,30.39,ESE,103,0.0,1.0,74,0.00,,---,0.00,VWS V14.01,2013-03-08 14:32:00,
2013-03-08 09:37:00,30.0,22.1,30.40,SSE,157,1.0,3.0,72,0.00,,---,0.00,VWS V14.01,2013-03-08 14:37:00,
2013-03-08 09:42:00,30.5,22.9,30.39,NNW,339,0.0,2.0,73,0.00,,---,0.00,VWS V14.01,2013-03-08 14:42:00,
2013-03-08 09:47:00,30.9,22.3,30.39,ENE,71,1.0,2.0,70,0.00,,---,0.00,VWS V14.01,2013-03-08 14:47:00,
2013-03-08 09:52:00,31.0,22.0,30.39,WNW,290,4.0,5.0,69,0.00,,---,0.00,VWS V14.01,2013-03-08 14:52:00,
2013-03-08 09:57:00,31.4,22.4,30.40,NNE,27,2.0,5.0,69,0.00,,---,0.00,VWS V14.01,2013-03-08 14:57:00,
2013-03-08 10:02:00,31.5,22.9,30.40,NE,43,1.0,6.0,70,0.00,,---,0.00,VWS V14.01,2013-03-08 15:02:00,
2013-03-08 10:07:00,31.6,22.6,30.40,West,276,3.0,6.0,69,0.00,,---,0.00,VWS V14.01,2013-03-08 15:07:00,
2013-03-08 10:12:00,31.6,23.0,30.39,WNW,301,1.0,1.0,70,0.00,,---,0.00,VWS V14.01,2013-03-08 15:12:00,
2013-03-08 10:17:00,31.9,23.2,30.39,SSE,158,1.0,4.0,70,0.00,,---,0.00,VWS V14.01,2013-03-08 15:17:00,
2013-03-08 10:22:00,32.2,23.5,30.40,East,94,0.0,1.0,70,0.00,,---,0.00,VWS V14.01,2013-03-08 15:22:00,
2013-03-08 10:27:00,32.6,23.2,30.40,West,273,5.0,13.0,68,0.00,,---,0.00,VWS V14.01,2013-03-08 15:27:00,
2013-03-08 10:32:00,32.8,23.4,30.40,SW,232,2.0,4.0,68,0.00,,---,0.00,VWS V14.01,2013-03-08 15:32:00,
2013-03-08 10:37:00,32.8,23.1,30.40,East,83,6.0,6.0,67,0.00,,---,0.00,VWS V14.01,2013-03-08 15:37:00,
2013-03-08 10:42:00,33.1,23.4,30.40,SW,215,1.0,3.0,67,0.00,,---,0.00,VWS V14.01,2013-03-08 15:42:00,
2013-03-08 10:47:00,33.5,23.4,30.40,NE,54,1.0,3.0,66,0.00,,---,0.00,VWS V14.01,2013-03-08 15:47:00,
2013-03-08 10:52:00,33.6,23.5,30.40,WNW,302,3.0,9.0,66,0.00,,---,0.00,VWS V14.01,2013-03-08 15:52:00,
2013-03-08 10:57:00,33.9,24.1,30.40,SSW,200,4.0,4.0,67,0.00,,---,0.00,VWS V14.01,2013-03-08 15:57:00,
2013-03-08 11:02:00,34.9,24.7,30.39,West,271,6.0,6.0,66,0.00,,---,0.00,VWS V14.01,2013-03-08 16:02:00,
2013-03-08 11:07:00,35.2,24.3,30.39,SSE,149,5.0,5.0,64,0.00,,---,0.00,VWS V14.01,2013-03-08 16:07:00,
2013-03-08 11:12:00,35.5,23.8,30.39,West,281,4.0,7.0,62,0.00,,---,0.00,VWS V14.01,2013-03-08 16:12:00,
2013-03-08 11:17:00,35.7,24.0,30.39,SSW,199,5.0,7.0,62,0.00,,---,0.00,VWS V14.01,2013-03-08 16:17:00,
2013-03-08 11:22:00,36.4,24.6,30.39,WNW,283,1.0,5.0,62,0.00,,---,0.00,VWS V14.01,2013-03-08 16:22:00,
2013-03-08 11:27:00,36.7,25.3,30.39,WSW,242,3.0,3.0,63,0.00,,---,0.00,VWS V14.01,2013-03-08 16:27:00,
2013-03-08 11:32:00,37.0,24.0,30.39,East,101,2.0,5.0,59,0.00,,---,0.00,VWS V14.01,2013-03-08 16:32:00,
2013-03-08 11:37:00,37.0,24.0,30.39,ENE,66,0.0,2.0,59,0.00,,---,0.00,VWS V14.01,2013-03-08 16:37:00,
2013-03-08 11:42:00,37.4,24.8,30.39,SSE,162,2.0,5.0,60,0.00,,---,0.00,VWS V14.01,2013-03-08 16:42:00,
2013-03-08 11:47:00,37.9,24.9,30.39,WNW,287,3.0,4.0,59,0.00,,---,0.00,VWS V14.01,2013-03-08 16:47:00,
2013-03-08 11:52:00,38.2,24.7,30.38,SSE,162,4.0,8.0,58,0.00,,---,0.00,VWS V14.01,2013-03-08 16:52:00,
2013-03-08 11:57:00,38.5,24.6,30.38,SW,214,1.0,4.0,57,0.00,,---,0.00,VWS V14.01,2013-03-08 16:57:00,
2013-03-08 12:02:00,39.3,26.2,30.38,WSW,239,6.0,9.0,59,0.00,,---,0.00,VWS V14.01,2013-03-08 17:02:00,
2013-03-08 12:07:00,39.9,26.3,30.38,West,262,2.0,3.0,58,0.00,,---,0.00,VWS V14.01,2013-03-08 17:07:00,
2013-03-08 12:12:00,40.1,24.4,30.38,WSW,240,3.0,6.0,53,0.00,,---,0.00,VWS V14.01,2013-03-08 17:12:00,
2013-03-08 12:17:00,40.0,24.7,30.37,SW,231,8.0,13.0,54,0.00,,---,0.00,VWS V14.01,2013-03-08 17:17:00,
2013-03-08 12:22:00,40.6,26.1,30.37,NW,308,1.0,2.0,56,0.00,,---,0.00,VWS V14.01,2013-03-08 17:22:00,
2013-03-08 12:27:00,41.0,24.7,30.37,SSE,153,1.0,7.0,52,0.00,,---,0.00,VWS V14.01,2013-03-08 17:27:00,
2013-03-08 12:32:00,41.7,25.4,30.36,South,172,2.0,3.0,52,0.00,,---,0.00,VWS V14.01,2013-03-08 17:32:00,
2013-03-08 12:37:00,42.6,27.1,30.36,NW,305,2.0,3.0,54,0.00,,---,0.00,VWS V14.01,2013-03-08 17:37:00,
2013-03-08 12:42:00,42.6,25.8,30.36,NW,304,4.0,8.0,51,0.00,,---,0.00,VWS V14.01,2013-03-08 17:42:00,
2013-03-08 12:47:00,42.3,25.0,30.37,West,264,1.0,4.0,50,0.00,,---,0.00,VWS V14.01,2013-03-08 17:47:00,
2013-03-08 12:52:00,42.6,24.3,30.37,ESE,118,4.0,8.0,48,0.00,,---,0.00,VWS V14.01,2013-03-08 17:52:00,
2013-03-08 12:57:00,42.9,25.1,30.36,South,177,4.0,7.0,49,0.00,,---,0.00,VWS V14.01,2013-03-08 17:57:00,
2013-03-08 13:02:00,43.1,24.8,30.36,SSW,200,7.0,8.0,48,0.00,,---,0.00,VWS V14.01,2013-03-08 18:02:00,
2013-03-08 13:07:00,43.5,23.6,30.36,South,175,5.0,11.0,45,0.00,,---,0.00,VWS V14.01,2013-03-08 18:07:00,
2013-03-08 13:12:00,43.8,23.9,30.35,SSE,167,5.0,9.0,45,0.00,,---,0.00,VWS V14.01,2013-03-08 18:12:00,
2013-03-08 13:17:00,44.0,24.6,30.35,SW,232,2.0,7.0,46,0.00,,---,0.00,VWS V14.01,2013-03-08 18:17:00,
2013-03-08 13:22:00,44.1,24.7,30.35,ENE,77,2.0,5.0,46,0.00,,---,0.00,VWS V14.01,2013-03-08 18:22:00,
2013-03-08 13:27:00,44.7,24.7,30.35,SSW,210,3.0,6.0,45,0.00,,---,0.00,VWS V14.01,2013-03-08 18:27:00,
2013-03-08 13:32:00,45.3,24.7,30.34,SW,219,5.0,7.0,44,0.00,,---,0.00,VWS V14.01,2013-03-08 18:32:00,
2013-03-08 13:37:00,45.7,26.6,30.34,SSE,157,4.0,4.0,47,0.00,,---,0.00,VWS V14.01,2013-03-08 18:37:00,
2013-03-08 13:42:00,45.7,24.5,30.34,SE,134,3.0,5.0,43,0.00,,---,0.00,VWS V14.01,2013-03-08 18:42:00,
2013-03-08 13:47:00,45.8,25.1,30.34,SSE,156,3.0,6.0,44,0.00,,---,0.00,VWS V14.01,2013-03-08 18:47:00,
2013-03-08 13:52:00,46.8,24.9,30.34,South,172,1.0,6.0,42,0.00,,---,0.00,VWS V14.01,2013-03-08 18:52:00,
2013-03-08 13:57:00,46.7,24.8,30.34,SSW,195,2.0,2.0,42,0.00,,---,0.00,VWS V14.01,2013-03-08 18:57:00,
2013-03-08 14:02:00,47.2,27.0,30.34,WSW,247,2.0,6.0,45,0.00,,---,0.00,VWS V14.01,2013-03-08 19:02:00,
2013-03-08 14:07:00,47.3,24.8,30.34,SSE,166,6.0,6.0,41,0.00,,---,0.00,VWS V14.01,2013-03-08 19:07:00,
2013-03-08 14:12:00,47.1,25.8,30.34,South,172,3.0,4.0,43,0.00,,---,0.00,VWS V14.01,2013-03-08 19:12:00,
2013-03-08 14:17:00,46.9,23.9,30.34,ESE,107,4.0,7.0,40,0.00,,---,0.00,VWS V14.01,2013-03-08 19:17:00,
2013-03-08 14:22:00,46.9,24.5,30.34,SE,125,4.0,8.0,41,0.00,,---,0.00,VWS V14.01,2013-03-08 19:22:00,
2013-03-08 14:27:00,47.1,24.6,30.34,ESE,103,1.0,5.0,41,0.00,,---,0.00,VWS V14.01,2013-03-08 19:27:00,
2013-03-08 14:32:00,47.2,25.9,30.34,SW,231,3.0,5.0,43,0.00,,---,0.00,VWS V14.01,2013-03-08 19:32:00,
2013-03-08 14:37:00,47.5,26.1,30.33,SW,214,4.0,5.0,43,0.00,,---,0.00,VWS V14.01,2013-03-08 19:37:00,
2013-03-08 14:42:00,47.7,24.6,30.33,SW,229,3.0,9.0,40,0.00,,---,0.00,VWS V14.01,2013-03-08 19:42:00,
2013-03-08 14:47:00,47.5,25.0,30.33,ESE,123,3.0,7.0,41,0.00,,---,0.00,VWS V14.01,2013-03-08 19:47:00,
2013-03-08 14:52:00,47.7,27.4,30.33,South,172,8.0,9.0,45,0.00,,---,0.00,VWS V14.01,2013-03-08 19:52:00,
2013-03-08 14:57:00,47.9,27.0,30.33,West,278,3.0,5.0,44,0.00,,---,0.00,VWS V14.01,2013-03-08 19:57:00,
2013-03-08 15:02:00,48.2,26.2,30.34,SSW,203,5.0,9.0,42,0.00,,---,0.00,VWS V14.01,2013-03-08 20:02:00,
2013-03-08 15:07:00,47.5,26.1,30.34,NE,49,8.0,11.0,43,0.00,,---,0.00,VWS V14.01,2013-03-08 20:07:00,
2013-03-08 15:12:00,47.4,27.7,30.33,West,269,0.0,3.0,46,0.00,,---,0.00,VWS V14.01,2013-03-08 20:12:00,
2013-03-08 15:17:00,47.5,26.7,30.33,South,186,2.0,4.0,44,0.00,,---,0.00,VWS V14.01,2013-03-08 20:17:00,
2013-03-08 15:22:00,47.4,27.1,30.33,ESE,110,0.0,6.0,45,0.00,,---,0.00,VWS V14.01,2013-03-08 20:22:00,
2013-03-08 15:27:00,47.5,27.2,30.34,West,262,2.0,9.0,45,0.00,,---,0.00,VWS V14.01,2013-03-08 20:27:00,
2013-03-08 15:32:00,46.9,26.7,30.34,WNW,302,1.0,4.0,45,0.00,,---,0.00,VWS V14.01,2013-03-08 20:32:00,
2013-03-08 15:37:00,47.1,27.4,30.34,SE,140,3.0,6.0,46,0.00,,---,0.00,VWS V14.01,2013-03-08 20:37:00,
2013-03-08 15:42:00,47.3,27.6,30.34,NE,47,4.0,4.0,46,0.00,,---,0.00,VWS V14.01,2013-03-08 20:42:00,
2013-03-08 15:47:00,47.5,27.2,30.34,NE,56,2.0,6.0,45,0.00,,---,0.00,VWS V14.01,2013-03-08 20:47:00,
2013-03-08 15:52:00,47.1,27.9,30.33,NW,308,2.0,2.0,47,0.00,,---,0.00,VWS V14.01,2013-03-08 20:52:00,
2013-03-08 15:57:00,47.0,28.3,30.33,NE,56,2.0,2.0,48,0.00,,---,0.00,VWS V14.01,2013-03-08 20:57:00,
2013-03-08 16:02:00,47.5,26.7,30.33,NE,41,1.0,3.0,44,0.00,,---,0.00,VWS V14.01,2013-03-08 21:02:00,
2013-03-08 16:07:00,47.5,28.3,30.32,SSW,204,3.0,3.0,47,0.00,,---,0.00,VWS V14.01,2013-03-08 21:07:00,
2013-03-08 16:12:00,47.1,26.3,30.32,SE,131,5.0,5.0,44,0.00,,---,0.00,VWS V14.01,2013-03-08 21:12:00,
2013-03-08 16:17:00,46.8,26.0,30.31,SSE,162,4.0,11.0,44,0.00,,---,0.00,VWS V14.01,2013-03-08 21:17:00,
2013-03-08 16:22:00,46.8,27.1,30.31,SW,224,0.0,5.0,46,0.00,,---,0.00,VWS V14.01,2013-03-08 21:22:00,
2013-03-08 16:27:00,46.8,26.6,30.31,South,176,1.0,2.0,45,0.00,,---,0.00,VWS V14.01,2013-03-08 21:27:00,
2013-03-08 16:32:00,47.3,26.5,30.31,NW,317,3.0,5.0,44,0.00,,---,0.00,VWS V14.01,2013-03-08 21:32:00,
2013-03-08 16:37:00,47.3,28.1,30.31,ENE,60,4.0,4.0,47,0.00,,---,0.00,VWS V14.01,2013-03-08 21:37:00,
2013-03-08 16:42:00,47.4,27.1,30.31,ENE,58,8.0,8.0,45,0.00,,---,0.00,VWS V14.01,2013-03-08 21:42:00,
2013-03-08 16:47:00,47.3,26.0,30.31,South,186,2.0,2.0,43,0.00,,---,0.00,VWS V14.01,2013-03-08 21:47:00,
2013-03-08 16:52:00,47.6,26.8,30.31,East,92,2.0,4.0,44,0.00,,---,0.00,VWS V14.01,2013-03-08 21:52:00,
2013-03-08 16:57:00,47.7,26.9,30.31,East,81,3.0,7.0,44,0.00,,---,0.00,VWS V14.01,2013-03-08 21:57:00,
2013-03-08 17:02:00,47.1,25.8,30.31,South,169,2.0,6.0,43,0.00,,---,0.00,VWS V14.01,2013-03-08 22:02:00,
2013-03-08 17:07:00,46.5,25.8,30.31,SW,227,1.0,5.0,44,0.00,,---,0.00,VWS V14.01,2013-03-08 22:07:00,
2013-03-08 17:12:00,46.3,26.1,30.31,SSE,163,3.0,4.0,45,0.00,,---,0.00,VWS V14.01,2013-03-08 22:12:00,
2013-03-08 17:17:00,46.4,25.7,30.31,ESE,122,3.0,5.0,44,0.00,,---,0.00,VWS V14.01,2013-03-08 22:17:00,
2013-03-08 17:22:00,46.2,26.0,30.31,SSW,193,1.0,1.0,45,0.00,,---,0.00,VWS V14.01,2013-03-08 22:22:00,
2013-03-08 17:27:00,45.5,26.5,30.32,SW,224,1.0,2.0,47,0.00,,---,0.00,VWS V14.01,2013-03-08 22:27:00,
2013-03-08 17:32:00,44.5,26.0,30.32,SSE,162,3.0,3.0,48,0.00,,---,0.00,VWS V14.01,2013-03-08 22:32:00,
2013-03-08 17:37:00,44.1,26.7,30.33,SW,235,1.0,2.0,50,0.00,,---,0.00,VWS V14.01,2013-03-08 22:37:00,
2013-03-08 17:42:00,43.3,25.4,30.33,SSE,152,2.0,7.0,49,0.00,,---,0.00,VWS V14.01,2013-03-08 22:42:00,
2013-03-08 17:47:00,42.7,25.4,30.33,SW,218,4.0,4.0,50,0.00,,---,0.00,VWS V14.01,2013-03-08 22:47:00,
2013-03-08 17:52:00,42.3,25.5,30.33,South,188,0.0,0.0,51,0.00,,---,0.00,VWS V14.01,2013-03-08 22:52:00,
2013-03-08 17:57:00,42.0,25.7,30.33,ESE,119,1.0,1.0,52,0.00,,---,0.00,VWS V14.01,2013-03-08 22:57:00,
2013-03-08 18:02:00,41.8,25.0,30.32,NE,54,3.0,4.0,51,0.00,,---,0.00,VWS V14.01,2013-03-08 23:02:00,
2013-03-08 18:07:00,41.5,25.2,30.33,SE,139,0.0,2.0,52,0.00,,---,0.00,VWS V14.01,2013-03-08 23:07:00,
2013-03-08 18:12:00,41.3,25.0,30.33,South,170,2.0,3.0,52,0.00,,---,0.00,VWS V14.01,2013-03-08 23:12:00,
2013-03-08 18:17:00,41.1,25.7,30.33,SW,225,0.0,1.0,54,0.00,,---,0.00,VWS V14.01,2013-03-08 23:17:00,
2013-03-08 18:22:00,40.8,25.0,30.33,SE,146,1.0,5.0,53,0.00,,---,0.00,VWS V14.01,2013-03-08 23:22:00,
2013-03-08 18:27:00,40.5,25.6,30.33,ESE,106,1.0,3.0,55,0.00,,---,0.00,VWS V14.01,2013-03-08 23:27:00,
2013-03-08 18:32:00,40.1,25.2,30.33,ENE,78,2.0,8.0,55,0.00,,---,0.00,VWS V14.01,2013-03-08 23:32:00,
2013-03-08 18:37:00,39.9,25.9,30.33,NE,52,4.0,4.0,57,0.00,,---,0.00,VWS V14.01,2013-03-08 23:37:00,
2013-03-08 18:42:00,39.6,24.8,30.34,NNE,30,1.0,2.0,55,0.00,,---,0.00,VWS V14.01,2013-03-08 23:42:00,
2013-03-08 18:47:00,39.3,25.4,30.34,West,262,1.0,3.0,57,0.00,,---,0.00,VWS V14.01,2013-03-08 23:47:00,
2013-03-08 18:52:00,39.2,25.3,30.34,East,89,2.0,2.0,57,0.00,,---,0.00,VWS V14.01,2013-03-08 23:52:00,
2013-03-08 18:57:00,39.0,24.6,30.34,West,259,1.0,5.0,56,0.00,,---,0.00,VWS V14.01,2013-03-08 23:57:00,
2013-03-08 19:02:00,38.8,24.9,30.34,East,89,0.0,1.0,57,0.00,,---,0.00,VWS V14.01,2013-03-09 00:02:00,
2013-03-08 19:07:00,38.4,24.9,30.34,SE,137,0.0,1.0,58,0.00,,---,0.00,VWS V14.01,2013-03-09 00:07:00,
2013-03-08 19:12:00,37.9,25.7,30.34,East,92,0.0,0.0,61,0.00,,---,0.00,VWS V14.01,2013-03-09 00:12:00,
2013-03-08 19:17:00,37.4,25.2,30.34,East,88,0.0,1.0,61,0.00,,---,0.00,VWS V14.01,2013-03-09 00:17:00,
2013-03-08 19:22:00,37.4,25.2,30.34,NE,34,1.0,4.0,61,0.00,,---,0.00,VWS V14.01,2013-03-09 00:22:00,
2013-03-08 19:27:00,37.4,26.0,30.34,NE,34,1.0,1.0,63,0.00,,---,0.00,VWS V14.01,2013-03-09 00:27:00,
2013-03-08 19:32:00,36.7,26.1,30.35,NE,34,0.0,1.0,65,0.00,,---,0.00,VWS V14.01,2013-03-09 00:32:00,
2013-03-08 19:37:00,36.4,25.0,30.34,ENE,63,0.0,1.0,63,0.00,,---,0.00,VWS V14.01,2013-03-09 00:37:00,
2013-03-08 19:42:00,36.1,25.9,30.35,East,84,0.0,0.0,66,0.00,,---,0.00,VWS V14.01,2013-03-09 00:42:00,
2013-03-08 19:47:00,35.7,26.2,30.35,East,83,0.0,0.0,68,0.00,,---,0.00,VWS V14.01,2013-03-09 00:47:00,
2013-03-08 19:52:00,35.3,25.8,30.36,East,83,0.0,1.0,68,0.00,,---,0.00,VWS V14.01,2013-03-09 00:52:00,
2013-03-08 19:57:00,35.1,26.0,30.36,East,84,0.0,0.0,69,0.00,,---,0.00,VWS V14.01,2013-03-09 00:57:00,
2013-03-08 20:02:00,34.8,26.0,30.36,East,84,0.0,0.0,70,0.00,,---,0.00,VWS V14.01,2013-03-09 01:02:00,
2013-03-08 20:07:00,34.5,25.4,30.36,East,83,0.0,0.0,69,0.00,,---,0.00,VWS V14.01,2013-03-09 01:07:00,
2013-03-08 20:12:00,34.3,25.5,30.36,East,84,0.0,0.0,70,0.00,,---,0.00,VWS V14.01,2013-03-09 01:12:00,
2013-03-08 20:17:00,34.1,25.4,30.36,East,84,0.0,0.0,70,0.00,,---,0.00,VWS V14.01,2013-03-09 01:17:00,
2013-03-08 20:22:00,34.0,25.9,30.36,East,83,1.0,1.0,72,0.00,,---,0.00,VWS V14.01,2013-03-09 01:22:00,
2013-03-08 20:27:00,33.9,26.2,30.37,East,83,1.0,1.0,73,0.00,,---,0.00,VWS V14.01,2013-03-09 01:27:00,
2013-03-08 20:32:00,33.9,25.5,30.37,East,84,0.0,0.0,71,0.00,,---,0.00,VWS V14.01,2013-03-09 01:32:00,
2013-03-08 20:37:00,33.9,25.5,30.38,East,83,1.0,1.0,71,0.00,,---,0.00,VWS V14.01,2013-03-09 01:37:00,
2013-03-08 20:42:00,33.7,25.6,30.39,East,82,1.0,2.0,72,0.00,,---,0.00,VWS V14.01,2013-03-09 01:42:00,
2013-03-08 20:47:00,33.6,26.5,30.39,NE,49,1.0,1.0,75,0.00,,---,0.00,VWS V14.01,2013-03-09 01:47:00,
2013-03-08 20:52:00,33.4,26.0,30.39,ENE,63,0.0,1.0,74,0.00,,---,0.00,VWS V14.01,2013-03-09 01:52:00,
2013-03-08 20:57:00,33.3,25.9,30.39,ENE,62,0.0,1.0,74,0.00,,---,0.00,VWS V14.01,2013-03-09 01:57:00,
2013-03-08 21:02:00,33.2,26.5,30.39,ENE,62,0.0,1.0,76,0.00,,---,0.00,VWS V14.01,2013-03-09 02:02:00,
2013-03-08 21:07:00,32.9,26.5,30.38,NE,56,1.0,1.0,77,0.00,,---,0.00,VWS V14.01,2013-03-09 02:07:00,
2013-03-08 21:12:00,32.7,26.0,30.38,NE,55,0.0,0.0,76,0.00,,---,0.00,VWS V14.01,2013-03-09 02:12:00,
2013-03-08 21:17:00,32.7,26.6,30.39,NE,55,1.0,1.0,78,0.00,,---,0.00,VWS V14.01,2013-03-09 02:17:00,
2013-03-08 21:22:00,32.5,26.1,30.38,NE,55,1.0,1.0,77,0.00,,---,0.00,VWS V14.01,2013-03-09 02:22:00,
2013-03-08 21:27:00,32.3,26.2,30.38,NE,56,1.0,1.0,78,0.00,,---,0.00,VWS V14.01,2013-03-09 02:27:00,
2013-03-08 21:32:00,32.3,26.2,30.37,NE,55,1.0,1.0,78,0.00,,---,0.00,VWS V14.01,2013-03-09 02:32:00,
2013-03-08 21:37:00,32.2,26.1,30.37,NE,56,1.0,1.0,78,0.00,,---,0.00,VWS V14.01,2013-03-09 02:37:00,
2013-03-08 21:42:00,32.2,26.1,30.37,NE,55,0.0,1.0,78,0.00,,---,0.00,VWS V14.01,2013-03-09 02:42:00,
2013-03-08 21:47:00,32.1,25.7,30.37,NE,56,0.0,1.0,77,0.00,,---,0.00,VWS V14.01,2013-03-09 02:47:00,
2013-03-08 21:52:00,32.3,25.9,30.36,NE,56,0.0,0.0,77,0.00,,---,0.00,VWS V14.01,2013-03-09 02:52:00,
2013-03-08 21:57:00,32.3,25.9,30.36,NE,56,0.0,0.0,77,0.00,,---,0.00,VWS V14.01,2013-03-09 02:57:00,
2013-03-08 22:02:00,32.3,25.0,30.36,NE,55,0.0,0.0,74,0.00,,---,0.00,VWS V14.01,2013-03-09 03:02:00,
2013-03-08 22:07:00,32.2,25.8,30.36,NE,55,0.0,0.0,77,0.00,,---,0.00,VWS V14.01,2013-03-09 03:07:00,
2013-03-08 22:12:00,32.0,25.0,30.36,NE,56,0.0,1.0,75,0.00,,---,0.00,VWS V14.01,2013-03-09 03:12:00,
2013-03-08 22:17:00,31.7,24.0,30.35,NE,55,0.0,0.0,73,0.00,,---,0.00,VWS V14.01,2013-03-09 03:17:00,
2013-03-08 22:22:00,31.7,24.4,30.35,NE,55,0.0,0.0,74,0.00,,---,0.00,VWS V14.01,2013-03-09 03:22:00,
2013-03-08 22:27:00,31.9,24.6,30.35,NE,56,0.0,0.0,74,0.00,,---,0.00,VWS V14.01,2013-03-09 03:27:00,
2013-03-08 22:32:00,31.8,25.1,30.35,NE,56,0.0,0.0,76,0.00,,---,0.00,VWS V14.01,2013-03-09 03:32:00,
2013-03-08 22:37:00,31.7,25.0,30.35,NE,55,0.0,1.0,76,0.00,,---,0.00,VWS V14.01,2013-03-09 03:37:00,
2013-03-08 22:42:00,31.7,25.0,30.35,NE,56,0.0,0.0,76,0.00,,---,0.00,VWS V14.01,2013-03-09 03:42:00,
2013-03-08 22:47:00,32.0,24.3,30.35,NE,55,0.0,0.0,73,0.00,,---,0.00,VWS V14.01,2013-03-09 03:47:00,
2013-03-08 22:52:00,32.4,24.1,30.35,NE,56,0.0,0.0,71,0.00,,---,0.00,VWS V14.01,2013-03-09 03:52:00,
2013-03-08 22:57:00,32.6,24.2,30.35,NE,56,0.0,1.0,71,0.00,,---,0.00,VWS V14.01,2013-03-09 03:57:00,
2013-03-08 23:02:00,32.7,23.0,30.35,NE,56,0.0,0.0,67,0.00,,---,0.00,VWS V14.01,2013-03-09 04:02:00,
2013-03-08 23:07:00,32.6,23.2,30.35,NE,56,0.0,0.0,68,0.00,,---,0.00,VWS V14.01,2013-03-09 04:07:00,
2013-03-08 23:12:00,32.2,23.9,30.35,NE,56,0.0,0.0,71,0.00,,---,0.00,VWS V14.01,2013-03-09 04:12:00,
2013-03-08 23:17:00,32.0,24.3,30.34,NE,56,0.0,0.0,73,0.00,,---,0.00,VWS V14.01,2013-03-09 04:17:00,
2013-03-08 23:22:00,31.8,23.8,30.35,NE,56,1.0,1.0,72,0.00,,---,0.00,VWS V14.01,2013-03-09 04:22:00,
2013-03-08 23:27:00,31.7,24.0,30.35,NE,55,0.0,0.0,73,0.00,,---,0.00,VWS V14.01,2013-03-09 04:27:00,
2013-03-08 23:32:00,31.7,24.0,30.35,NE,55,0.0,0.0,73,0.00,,---,0.00,VWS V14.01,2013-03-09 04:32:00,
2013-03-08 23:37:00,31.6,23.0,30.35,NE,55,0.0,0.0,70,0.00,,---,0.00,VWS V14.01,2013-03-09 04:37:00,
2013-03-08 23:42:00,31.3,24.0,30.35,NE,56,0.0,0.0,74,0.00,,---,0.00,VWS V14.01,2013-03-09 04:42:00,
2013-03-08 23:47:00,31.0,24.0,30.35,NE,55,0.0,0.0,75,0.00,,---,0.00,VWS V14.01,2013-03-09 04:47:00,
2013-03-08 23:52:00,30.5,23.9,30.35,NE,56,0.0,0.0,76,0.00,,---,0.00,VWS V14.01,2013-03-09 04:52:00,
2013-03-08 23:57:00,30.2,24.2,30.35,NE,55,0.0,1.0,78,0.00,,---,0.00,VWS V14.01,2013-03-09 04:57:00,